[TLELIST] Archives

 

Current TLEs

March 13th 2008 PDT

HST 1 20580U 90037B 08070.82844427 +.00000404 +00000-0 +18469-4 0 01046 2 20580 028.4681 244.7275 0003813 061.5784 298.5192 15.00347384780199 ISS (ZARYA) 1 25544U 98067A 08072.52769676 .00027591 00000-0 17483-3 0 985 2 25544 051.6370 154.6574 0001377 238.9578 315.6034 15.76321575533270 CXO 1 25867U 99040B 08072.33333333 .00000224 00000-0 10000-3 0 1771 2 25867 063.3008 082.9471 6662777 280.1753 352.0919 00.37803691 3265 ____________________________________________________________________ These 2-Line ...Continue Reading

Current TLEs

March 12th 2008 PDT

HST 1 20580U 90037B 08071.16104670 .00000404 00000-0 18482-4 0 902 2 20580 028.4681 242.5586 0003840 064.8371 295.2613 15.00347536780245 ISS (ZARYA) 1 25544U 98067A 08071.36697444 .00026865 00000-0 17085-3 0 902 2 25544 051.6387 160.6387 0002052 220.5225 222.9055 15.76254185533099 CXO 1 25867U 99040B 08069.70833333 .00000328 00000-0 10000-3 0 1767 2 25867 063.2784 083.0452 6661577 280.1812 354.7697 00.37809370 3250 ____________________________________________________________________ These 2-Line ...Continue Reading

Current TLEs

March 11th 2008 PDT

HST 1 20580U 90037B 08069.83063686 .00000366 00000-0 15506-4 0 893 2 20580 028.4685 251.2415 0003505 051.3069 308.7835 15.00346692780046 ISS (ZARYA) 1 25544U 98067A 08070.40878108 .00023772 00000-0 15224-3 0 844 2 25544 051.6389 165.5710 0001770 228.0693 174.4591 15.76173545532942 CXO 1 25867U 99040B 08069.70833333 .00000328 00000-0 10000-3 0 1767 2 25867 063.2784 083.0452 6661577 280.1812 354.7697 00.37809370 3250 ____________________________________________________________________ These 2-Line ...Continue Reading

Current TLEs

March 10th 2008 PDT

HST 1 20580U 90037B 08067.90154031 +.00000378 +00000-0 +16486-4 0 01021 2 20580 028.4687 263.8238 0003390 029.7806 330.2976 15.00346012779758 ISS (ZARYA) 1 25544U 98067A 08069.53348130 .00021365 00000-0 13760-3 0 785 2 25544 051.6381 170.0806 0001732 218.7041 253.8545 15.76119987532808 CXO 1 25867U 99040B 08069.70833333 .00000328 00000-0 10000-3 0 1767 2 25867 063.2784 083.0452 6661577 280.1812 354.7697 00.37809370 3250 ____________________________________________________________________ These 2-Line ...Continue Reading

Current TLEs

March 9th 2008 PDT

HST 1 20580U 90037B 08066.90373099 .00000405 00000-0 18523-4 0 874 2 20580 028.4687 270.3312 0003352 018.6375 341.4336 15.00345764779601 ISS (ZARYA) 1 25544U 98067A 08068.39213491 .00020307 00000-0 13131-3 0 708 2 25544 051.6380 175.9590 0001805 212.3047 259.9378 15.76066021532629 CXO 1 25867U 99040B 08067.08333333 .00000335 00000-0 10000-3 0 1758 2 25867 063.2578 083.1285 6657936 280.1712 357.4969 00.37808950 3243 ____________________________________________________________________ These 2-Line ...Continue Reading

Current TLEs

March 8th 2008 PDT

HST 1 20580U 90037B 08066.90373099 .00000405 00000-0 18523-4 0 874 2 20580 028.4687 270.3312 0003352 018.6375 341.4336 15.00345764779601 ISS (ZARYA) 1 25544U 98067A 08067.37660855 .00019759 00000-0 12813-3 0 632 2 25544 051.6382 181.1891 0001970 206.4772 260.0150 15.76021542532468 CXO 1 25867U 99040B 08067.08333333 .00000335 00000-0 10000-3 0 1758 2 25867 063.2578 083.1285 6657936 280.1712 357.4969 00.37808950 3243 ____________________________________________________________________ These 2-Line ...Continue Reading

Current TLEs

March 7th 2008 PDT

HST 1 20580U 90037B 08064.90811228 +.00000428 +00000-0 +20351-4 0 01028 2 20580 028.4687 283.3448 0003387 357.4879 002.5695 15.00344891779306 ISS (ZARYA) 1 25544U 98067A 08066.41457713 .00019631 00000-0 12755-3 0 558 2 25544 051.6382 186.1436 0001981 205.1175 199.4931 15.75981358532318 CXO 1 25867U 99040B 08067.08333333 .00000335 00000-0 10000-3 0 1758 2 25867 063.2578 083.1285 6657936 280.1712 357.4969 00.37808950 3243 ____________________________________________________________________ These 2-Line ...Continue Reading

Current TLEs

March 6th 2008 PDT

HST 1 20580U 90037B 08064.97463286 .00000431 00000-0 20558-4 0 866 2 20580 028.4688 282.9109 0003378 358.4129 001.6450 15.00344955779316 ISS (ZARYA) 1 25544U 98067A 08065.41280892 .00021267 00000-0 13802-3 0 494 2 25544 051.6378 191.3046 0001795 197.5538 279.7355 15.75946995532150 CXO 1 25867U 99040B 08064.41666667 .00000259 00000-0 10000-3 0 1745 2 25867 063.2420 083.1952 6652960 280.1746 354.5094 00.37806768 3230 ____________________________________________________________________ These 2-Line ...Continue Reading

Current TLEs

March 5th 2008 PDT

HST 1 20580U 90037B 08063.91030262 .00000405 00000-0 18594-4 0 850 2 20580 028.4689 289.8532 0003375 345.8741 014.1756 15.00344230779156 ISS (ZARYA) 1 25544U 98067A 08064.39494022 .00023745 00000-0 15381-3 0 422 2 25544 051.6387 196.5448 0002324 188.9695 269.7466 15.75912859531995 CXO 1 25867U 99040B 08064.41666667 .00000259 00000-0 10000-3 0 1745 2 25867 063.2420 083.1952 6652960 280.1746 354.5094 00.37806768 3230 ____________________________________________________________________ These 2-Line ...Continue Reading

Current TLEs

March 4th 2008 PDT

HST 1 20580U 90037B 08062.84597179 .00000368 00000-0 15662-4 0 846 2 20580 028.4691 296.7949 0003401 332.8863 027.1548 15.00343468778995 ISS (ZARYA) 1 25544U 98067A 08063.38218727 .00022481 00000-0 14617-3 0 377 2 25544 051.6373 201.7628 0002237 190.1262 279.1703 15.75863998531838 CXO 1 25867U 99040B 08059.12500000 .00000125 00000-0 10000-3 0 1736 2 25867 063.2186 083.3154 6641497 280.2288 354.1024 00.37805772 3211 ____________________________________________________________________ These 2-Line ...Continue Reading
  • This mailing list is a public mailing list - anyone may join or leave, at any time.
  • This mailing list is announce-only.

International Space Station (ISS) / Hubble Space Telescope (HST) / Chandra X-Ray Observatory Orbital Data via EMAIL

Privacy Policy:

Private list